User: anonymous   Login
Location: Bord�res
(43.2000°N, 0.2167°W)
Time: 19:53:47
(UTC+00:00)
Language:

CZ-4B R/B - Orbit

View from above orbital plane
View from above orbital plane
View from above satellite
View from above satellite

Ground track
Ground track

The orbit data is extracted from the following two-line orbital elements,

1 29093U 06015B   21136.49294470  .00004312  00000-0  78468-4 0  9994
2 29093  97.6346 327.0343 0049621 192.5760 167.4256 15.48757888837981
Epoch (UTC): 16 May 2021 11:49:50
Eccentricity: 0.0049621
inclination: 97.6346°
perigee height: 386 km
apogee height: 454 km
right ascension of ascending node: 327.0343°
argument of perigee: 192.5760°
revolutions per day: 15.48757888
mean anomaly at epoch: 167.4256°
orbit number at epoch: 83798

The dashed part of the orbit path shows where the satellite is in the earth's shadow,  

DLR